This is the latest recevied weather packets stored in our database for station/object K0SDS. If no packets are shown the sender has not sent any weather packets the latest 10 day(s).
| Time | Temp. | Humidity | Pressure | Rain* | Wind** | Luminosity | Snow |
|---|---|---|---|---|---|---|---|
| 1777473535 | 11.67° C | 77% | 1021.1 hPa | 0 mm | - | 370 W/m² | - |
| 1777473231 | 11.11° C | 77% | 1021.3 hPa | 0 mm | - | 345 W/m² | - |
| 1777472928 | 11.11° C | 78% | 1021.3 hPa | 0 mm | - | 336 W/m² | - |
| 1777472624 | 11.11° C | 78% | 1021.6 hPa | 0 mm | - | 322 W/m² | - |
| 1777472321 | 11.11° C | 79% | 1021.5 hPa | 0 mm | - | 301 W/m² | - |
| 1777472018 | 10.56° C | 78% | 1021.3 hPa | 0 mm | - | 276 W/m² | - |
| 1777471714 | 10.56° C | 80% | 1021.4 hPa | 0 mm | - | 286 W/m² | - |
| 1777471410 | 10° C | 82% | 1021.3 hPa | 0 mm | - | 263 W/m² | - |
| 1777471107 | 10° C | 84% | 1021.2 hPa | 0 mm | - | 239 W/m² | - |
| 1777470804 | 10° C | 84% | 1021.5 hPa | 0 mm | - | 226 W/m² | - |
| 1777470501 | 9.44° C | 86% | 1021.5 hPa | 0 mm | - | 201 W/m² | - |
| 1777470197 | 8.89° C | 86% | 1021.2 hPa | 0 mm | - | 205 W/m² | - |
| 1777469893 | 8.89° C | 88% | 1021.4 hPa | 0 mm | - | 189 W/m² | - |
| 1777469589 | 8.33° C | 89% | 1021.5 hPa | 0 mm | - | 181 W/m² | - |
| 1777469284 | 8.33° C | 89% | 1021.5 hPa | 0 mm | - | 114 W/m² | - |
| 1777468979 | 8.33° C | 88% | 1021.4 hPa | 0 mm | - | 66 W/m² | - |
| 1777468675 | 8.33° C | 89% | 1021.3 hPa | 0 mm | - | 129 W/m² | - |
| 1777468372 | 7.78° C | 89% | 1021.2 hPa | 0 mm | - | 78 W/m² | - |
| 1777468068 | 8.33° C | 89% | 1021 hPa | 0 mm | - | 59 W/m² | - |
| 1777467764 | 8.33° C | 90% | 1021.3 hPa | 0 mm | - | 78 W/m² | - |
| 1777467459 | 8.33° C | 90% | 1021.2 hPa | 0 mm | - | 84 W/m² | - |
| 1777467154 | 8.33° C | 90% | 1020.9 hPa | 0 mm | - | 84 W/m² | - |
| 1777466852 | 8.33° C | 91% | 1021.1 hPa | 0 mm | - | 74 W/m² | - |
| 1777466550 | 7.78° C | 92% | 1021.1 hPa | 0 mm | - | 82 W/m² | - |
| 1777466246 | 7.22° C | 92% | 1020.9 hPa | 0 mm | - | 72 W/m² | - |
* Rain latest hour (hover to see other rain measurements)
** Current wind speed in m/s (hover to see current wind gust speed)